Simultaneous Nadir Overpasses (SNOs) Predictions

Prediction of SNOs between NOAA-19 and METOP-C Satellite Orbit:

Table of predicted SNOs for the next 14.0 days since TLE Epoch: 8/10/2024
Index Date (NOAA-19) Time (NOAA-19) Lat,Lon (NOAA-19) SZA (NOAA-19 ) Date (METOP-C) Time (METOP-C) Lat,Lon (METOP-C) SZA (METOP-C ) Distance(km) Time Diff (sec)
1 08/12/2024 09:37:03 77.11, 39.96 62.30 08/12/2024 09:38:07 77.10, 39.91 62.29 1.57 64
2 08/12/2024 10:27:56 -77.25,-152.11 117.54 08/12/2024 10:28:45 -77.26,-152.09 117.54 0.53 49
3 08/12/2024 11:18:50 77.55, 16.57 62.80 08/12/2024 11:19:18 77.55, 16.58 62.80 0.27 28
4 08/12/2024 12:09:44 -77.65,-175.68 117.09 08/12/2024 12:09:57 -77.66,-175.59 117.07 2.56 13
5 08/12/2024 13:00:39 77.90, -7.10 63.21 08/12/2024 13:00:31 77.91, -7.03 63.22 2.09 8
6 08/12/2024 13:51:29 -78.14, 161.54 116.50 08/12/2024 13:51:07 -78.13, 161.46 116.52 1.92 22
7 08/12/2024 14:42:26 78.31, -30.22 63.71 08/12/2024 14:41:43 78.30, -30.32 63.69 2.73 43



Historial Predications of SNOs between NOAA-19 and METOP-C
